Simultaneous Nadir Overpasses (SNOs) Predictions

Prediction of SNOs between METOP-B and NOAA-19 Satellite Orbit:

Table of predicted SNOs for the next 14.0 days since TLE Epoch: 8/26/2022
Index Date (METOP-B) Time (METOP-B) Lat,Lon (METOP-B) SZA (METOP-B ) Date (NOAA-19) Time (NOAA-19) Lat,Lon (NOAA-19) SZA (NOAA-19 ) Distance(km) Time Diff (sec)
1 09/01/2022 13:57:23 80.89, 4.58 74.29 09/01/2022 13:56:20 80.88, 4.61 74.27 1.16 63
2 09/01/2022 14:48:04 -80.89, 171.83 105.71 09/01/2022 14:47:25 -80.88, 171.79 105.73 0.97 39
3 09/01/2022 15:38:45 80.88, -20.93 74.30 09/01/2022 15:38:20 80.88, -20.96 74.29 0.67 25
4 09/01/2022 16:29:26 -80.88, 146.33 105.70 09/01/2022 16:29:25 -80.88, 146.20 105.71 2.28 1
5 09/01/2022 17:20:06 80.89, -46.07 74.35 09/01/2022 17:20:19 80.88, -46.17 74.34 2.19 13
6 09/01/2022 18:10:48 -80.87, 120.82 105.70 09/01/2022 18:11:24 -80.88, 121.00 105.66 3.24 36
7 09/01/2022 19:01:28 80.88, -71.58 74.35 09/01/2022 19:02:19 80.88, -71.75 74.36 2.99 51



Historial Predications of SNOs between METOP-B and NOAA-19
